Powrót do katalogu

FENGYUN 1C DEB

AktywnyPO
NORAD 29802·DEBRIS·🇨🇳 China

Wystrzelony May 10, 1999 z Taiyuan Satellite Launch Center

Loading…

Następne Przeloty (najbliższe 24 godziny)

TLE

ŚwieżeSource: Space-Track

Epoka: Sep 13, 2026, 20:05 UTC

1 29802U 99025CU  26256.83741054  .00010844  00000-0  18090-2 0  9996
2 29802  98.6340  24.9350 0033188 201.0122 319.6568 14.69783150 25039

Śledź FENGYUN 1C DEB w czasie rzeczywistym z AllMySat

Download on the App Store